Regional Weather Roundup
Issued by NWS Jackson, KY

Home | Current Version | Previous Version | Graphics & Text | Print | Product List | Glossary On
Versions: 1 2 3 4 5 6 7 8 9 10 11 12 13 14 15 16 17 18 19 20 21 22 23 24 25 26 27 28 29 30 31 32 33 34 35 36 37 38 39 40 41 42 43 44 45 46 47 48 49 50
000
ASUS43 KJKL 012311
RWRJKL

EAST KENTUCKY HOURLY WEATHER ROUNDUP
NATIONAL WEATHER SERVICE JACKSON KY
700 PM EDT FRI AUG 01 2014

NOTE: "FAIR" INDICATES FEW OR NO CLOUDS BELOW 12,000 FEET WITH
NO SIGNIFICANT WEATHER AND/OR OBSTRUCTIONS TO VISIBILITY.

* THESE REPORTS ARE NOT UNDER NWS QUALITY CONTROL AND MAY NOT
  REPORT WEATHER SUCH AS PRECIPITATION AND FOG.

KYZ079-080-083-085-087-088-110-112-115-119-120-020000
...EASTERN KENTUCKY...

CITY           SKY/WX    TMP DP  RH WIND       PRES   REMARKS
JACKSON        SUNNY     77  62  59 CALM      30.06S
LONDON         PTSUNNY   80  61  52 E3        30.05S
SOMERSET*      SUNNY     81  63  54 NE5       30.05S
MONTICELLO*    PTSUNNY   84  66  54 CALM      30.05F
WILLIAMSBURG*  SUNNY     81  63  54 CALM      30.05
MIDDLESBORO*   PTSUNNY   78  66  65 CALM      30.05F
HARLAN APT*    CLEAR     77  61  57 MISG      30.06F
HAZARD APT*    PTCLDY    81  64  57 CALM      30.06
BLACK MTN*       N/A     66  63  88 E1          N/A
PIKEVILLE APT* SUNNY     77  63  61 SE3       30.07F
BIG SANDY*     PTCLDY    81  65  57 E6        30.06S
MOREHEAD APT*    N/A     81  63  54 NE5       30.07S
$$

KYZ035-036-041-042-044-050-067-078-099-020000
...CENTRAL KENTUCKY...

CITY           SKY/WX    TMP DP  RH WIND       PRES   REMARKS
MT STERLING*   MOSUNNY   81  63  54 NE5       30.06S
FLEMING/MASON* SUNNY     81  59  47 E6        30.06S
DANVILLE*      SUNNY     79  61  53 NE5       30.06S
RICHMOND*      MOSUNNY   82  61  47 NE3       30.04F
LEXINGTON      CLOUDY    84  58  40 E6        30.05S
FRANKFORT      SUNNY     83  57  41 NE5       30.04S
$$

KYZ091>093-OHZ055-061-077-WVZ005-015-034-035-042-020000
...SOUTHERN OHIO/WEST VIRGINIA...

CITY           SKY/WX    TMP DP  RH WIND       PRES   REMARKS
COVINGTON      PTSUNNY   82  57  42 SE3       30.05S
COLUMBUS       MOSUNNY   83  60  45 N7        30.05S
DAYTON         PTSUNNY   82  59  45 NE5       30.08S
WILMINGTON     SUNNY     79  61  53 CALM      30.06F
HUNTINGTON     PTSUNNY   76  65  68 N5        30.05R
CHARLESTON     PTSUNNY   78  63  59 SE5       30.07R
PINEVILLE*     MOSUNNY   78  63  61 MISG      30.16S
BECKLEY        MOSUNNY   71  55  56 SE10      30.16S
BLUEFIELD      CLOUDY    67  57  70 VRB5      30.19S
$$

VAZ002-007-008-TNZ017-027-036-066-071-020000
...SOUTHWEST VIRGINIA/EAST TENNESSEE...

CITY           SKY/WX    TMP DP  RH WIND       PRES   REMARKS
WISE*          MOSUNNY   73  59  60 CALM      30.15F
JONESVILLE*    CLEAR     77  64  65 CALM      30.08S
ABINGDON*      SUNNY     74  60  60 SE10      30.12F
BRISTOL        MOSUNNY   77  59  53 E6        30.08F
KNOXVILLE      PTSUNNY   80  64  58 E7        30.01F
OAK RIDGE      PTSUNNY   84  64  50 N3        30.03F
CROSSVILLE     CLOUDY    76  63  64 NE3       30.09S
NASHVILLE      PTSUNNY   85  60  42 E3        30.02S
$$

...KEY TO REMARKS...
VSB - VISIBILITY IN MILES
WCI - WIND CHILL INDEX
HX  - HEAT INDEX

$$



USA.gov is the U.S. government's official web portal to all federal, state and local government web resources and services.